DW3263 Weather Reports


Display with metric or nautical units.
time (UTC)temp
F
wind
direction
speed
MPH
gust
MPH
rain 1hr
in
rain 24hr
in
rain mn
in
humidity
%
barometer
mb
20210301004136 39 113 1.0 4.0 0.01 0.99 0.99 97 1013.5
20210301003134 39 113 3.0 5.0 0.00 0.98 0.98 97 1013.4
20210301002142 39 113 4.0 7.0 0.01 0.98 0.98 97 1013.3
20210301001134 39 113 2.0 5.0 0.01 0.98 0.98 97 1013.9
20210301000143 39 113 4.0 7.0 0.01 0.98 0.98 97 1013.8
20210228235408 39 113 4.0 8.0 0.01 0.98 0.98 97 1014.0
20210228234035 39 113 5.0 9.0 0.01 0.98 0.98 97 1013.8
20210228233134 39 113 6.0 11.0 0.02 0.98 0.98 97 1013.7
20210228232137 39 135 6.0 9.0 0.01 0.97 0.97 97 1013.8
20210228231133 39 113 4.0 10.0 0.01 0.97 0.97 97 1014.4
20210228230134 39 113 5.0 8.0 0.01 0.97 0.97 97 1014.6
20210228225306 39 113 7.0 14.0 0.01 0.97 0.97 97 1014.7
20210228224133 39 135 8.0 12.0 0.01 0.97 0.97 97 1014.4
20210228223145 39 113 11.0 19.0 0.00 0.96 0.96 97 1014.3
20210228222145 39 113 8.0 16.0 0.00 0.96 0.96 97 1014.8
20210228221134 39 113 8.0 16.0 0.00 0.96 0.96 97 1014.5
20210228220134 38 113 8.0 12.0 0.00 0.96 0.96 97 1014.6
20210228215322 38 113 7.0 11.0 0.00 0.96 0.96 97 1014.9
20210228214138 38 113 7.0 11.0 0.00 0.96 0.96 97 1015.1
20210228213135 38 113 6.0 12.0 0.00 0.96 0.96 97 1015.4
20210228212133 38 113 6.0 9.0 0.01 0.96 0.96 97 1015.5
20210228211041 38 113 7.0 10.0 0.01 0.96 0.96 97 1015.5
20210228210133 38 113 7.0 12.0 0.03 0.96 0.96 97 1015.9
20210228205315 38 113 6.0 11.0 0.05 0.96 0.96 97 1016.5
20210228204131 38 90 6.0 9.0 0.07 0.96 0.96 97 1016.9
20210228203135 38 113 5.0 10.0 0.11 0.96 0.96 97 1016.8
20210228202032 38 113 4.0 7.0 0.14 0.95 0.95 97 1017.0
20210228201025 38 113 4.0 8.0 0.17 0.95 0.95 97 1017.2
20210228200136 38 113 5.0 9.0 0.18 0.93 0.93 97 1017.2
20210228195135 38 113 6.0 10.0 0.19 0.91 0.91 97 1017.3
20210228194138 38 113 4.0 10.0 0.21 0.89 0.89 97 1017.3
20210228193137 39 113 7.0 11.0 0.20 0.85 0.85 97 1017.3
20210228192134 39 113 5.0 10.0 0.19 0.81 0.81 97 1017.2
20210228191134 39 113 6.0 14.0 0.17 0.78 0.78 97 1017.6
20210228190034 39 113 6.0 10.0 0.16 0.75 0.75 97 1017.7
20210228185136 39 113 8.0 11.0 0.15 0.72 0.72 97 1017.8
20210228184136 40 113 7.0 14.0 0.13 0.68 0.68 97 1018.0
20210228183134 40 113 7.0 12.0 0.12 0.65 0.65 97 1018.4
20210228182134 40 90 6.0 11.0 0.12 0.62 0.62 97 1018.8
20210228181133 40 90 4.0 10.0 0.15 0.61 0.61 97 1018.8
20210228180134 40 113 5.0 10.0 0.16 0.59 0.59 96 1018.7
20210228175132 40 113 6.0 10.0 0.18 0.57 0.57 96 1019.0
20210228174133 40 113 6.0 14.0 0.18 0.55 0.55 96 1019.2
20210228173035 40 113 4.0 9.0 0.18 0.53 0.53 97 1019.9
20210228172136 40 113 7.0 11.0 0.18 0.50 0.50 96 1020.3
20210228171140 40 90 5.0 8.0 0.17 0.46 0.46 96 1020.7
20210228170134 40 68 3.0 8.0 0.15 0.43 0.43 96 1021.0
20210228165134 40 0 4.0 10.0 0.13 0.39 0.40 96 1020.7
20210228164033 40 113 5.0 8.0 0.13 0.37 0.37 96 1020.7
20210228163149 40 113 6.0 9.0 0.13 0.35 0.35 96 1020.7
20210228162134 40 113 6.0 9.0 0.12 0.32 0.32 96 1021.0
20210228161134 40 90 4.0 10.0 0.12 0.29 0.29 96 1021.3
20210228160136 40 113 5.0 9.0 0.13 0.28 0.28 96 1021.2
20210228155134 40 113 2.0 8.0 0.13 0.26 0.26 96 1021.2
20210228154134 40 90 5.0 8.0 0.13 0.24 0.24 96 1021.2
20210228153134 40 113 3.0 7.0 0.12 0.22 0.22 96 1021.4
20210228152133 40 113 5.0 9.0 0.12 0.20 0.20 96 1021.3
20210228151134 40 113 6.0 10.0 0.10 0.17 0.17 96 1021.6
20210228150134 40 113 4.0 8.0 0.09 0.15 0.15 96 1022.0
20210228145134 40 113 5.0 9.0 0.08 0.13 0.13 96 1022.1
20210228144133 40 113 4.0 8.0 0.06 0.12 0.11 96 1022.3
20210228143150 40 113 4.0 7.0 0.05 0.11 0.10 96 1022.3
20210228142134 40 113 5.0 7.0 0.03 0.09 0.08 96 1022.0
20210228141134 40 113 2.0 3.0 0.02 0.08 0.07 96 1022.6
20210228140134 40 0.0 0.0 0.02 0.07 0.06 97 1023.0
20210228135020 40 113 1.0 3.0 0.02 0.06 0.05 97 1022.3
20210228134135 40 113 2.0 5.0 0.03 0.06 0.05 97 1021.8
20210228133208 39 113 1.0 4.0 0.04 0.06 0.05 97 1021.7
20210228132134 39 113 2.0 5.0 0.04 0.07 0.05 97 1021.6
20210228131148 38 113 4.0 5.0 0.04 0.07 0.05 97 1021.6
20210228130031 38 113 2.0 4.0 0.03 0.06 0.04 97 1022.3
20210228125137 38 113 4.0 7.0 0.02 0.06 0.03 97 1022.2
20210228124136 37 113 4.0 8.0 0.02 0.05 0.02 97 1022.4
20210228123135 37 0.0 3.0 0.01 0.04 0.01 98 1022.7
20210228122134 36 0.0 0.0 0.01 0.05 0.01 97 1022.8
20210228121133 36 0.0 0.0 0.01 0.05 0.01 97 1022.7
20210228120036 36 0.0 0.0 0.01 0.06 0.01 97 1022.5
20210228115436 36 0.0 0.0 0.01 0.06 0.01 97 1022.1
20210228114136 35 0.0 0.0 0.00 0.05 0.00 97 1022.6
20210228113136 35 0.0 0.0 0.00 0.05 0.00 97 1022.6
20210228112133 35 0.0 0.0 0.00 0.05 0.00 97 1022.6
20210228111134 35 0.0 0.0 0.00 0.05 0.00 97 1022.5
20210228110136 35 0.0 0.0 0.00 0.05 0.00 97 1022.7
20210228105045 35 0.0 0.0 0.00 0.05 0.00 97 1022.9
20210228104133 35 0.0 0.0 0.00 0.06 0.00 97 1022.9
20210228103156 35 0.0 0.0 0.00 0.06 0.00 97 1022.7
20210228102135 35 0.0 0.0 0.00 0.07 0.00 97 1022.7
20210228101133 35 0.0 0.0 0.00 0.07 0.00 97 1022.7
20210228100132 35 0.0 0.0 0.00 0.07 0.00 97 1023.0
20210228095157 35 0.0 0.0 0.00 0.07 0.00 97 1023.0
20210228094136 37 0.0 2.0 0.00 0.07 0.00 97 1022.6
20210228093132 37 0.0 0.0 0.00 0.08 0.00 97 1022.5
20210228092135 37 0.0 0.0 0.00 0.08 0.00 97 1022.5
20210228091136 38 0.0 2.0 0.00 0.09 0.00 97 1022.6
20210228090135 38 0.0 1.0 0.00 0.09 0.00 98 1022.7
20210228085326 37 0.0 2.0 0.00 0.10 0.00 97 1022.7
20210228084134 36 0.0 2.0 0.00 0.10 0.00 97 1022.9
20210228083136 35 0.0 2.0 0.00 0.10 0.00 97 1022.9
20210228082134 35 270 2.0 7.0 0.00 0.11 0.00 97 1023.1
20210228081136 36 270 1.0 2.0 0.00 0.11 0.00 97 1023.4
20210228080030 36 0.0 0.0 0.00 0.11 0.00 97 1023.3
20210228075234 36 0.0 2.0 0.00 0.11 0.00 97 1023.3
20210228074133 36 0.0 0.0 0.00 0.11 0.00 97 1023.4
20210228073139 35 0.0 0.0 0.00 0.11 0.00 97 1023.5
20210228072132 35 0.0 0.0 0.00 0.11 0.00 97 1023.8
20210228071134 34 0.0 2.0 0.00 0.11 0.00 97 1023.6
20210228070137 35 0.0 0.0 0.00 0.11 0.00 97 1023.1
20210228065027 35 0.0 0.0 0.00 0.11 0.00 97 1022.8
20210228064138 36 0.0 0.0 0.00 0.11 0.00 97 1023.0
20210228063335 37 0.0 0.0 0.00 0.11 0.00 97 1023.1
20210228062135 36 0.0 0.0 0.00 0.11 0.00 97 1022.9
20210228061032 36 0.0 0.0 0.00 0.12 0.00 97 1022.7
20210228060135 35 0.0 0.0 0.00 0.12 0.00 97 1023.1
20210228055136 34 270 1.0 2.0 0.00 0.12 0.00 96 1022.6
20210228054023 34 0.0 2.0 0.00 0.12 0.00 96 1022.3
20210228053209 36 0.0 3.0 0.00 0.12 0.00 97 1022.5
20210228052141 36 0.0 0.0 0.00 0.12 0.00 97 1022.5
20210228051139 35 0.0 0.0 0.00 0.13 0.00 97 1022.6
20210228050132 34 270 1.0 2.0 0.00 0.13 0.00 96 1022.7
20210228045135 34 0.0 2.0 0.00 0.14 0.13 96 1022.6
20210228044133 36 0.0 4.0 0.00 0.14 0.13 96 1022.9
20210228043137 36 270 2.0 7.0 0.00 0.15 0.13 96 1022.9
20210228042135 34 0.0 0.0 0.00 0.16 0.13 96 1023.2
20210228041138 34 0.0 0.0 0.00 0.17 0.13 95 1023.1
20210228040023 37 0.0 0.0 0.00 0.18 0.13 96 1023.0
20210228035133 37 0.0 0.0 0.00 0.19 0.13 96 1022.9
20210228034141 36 0.0 0.0 0.00 0.19 0.13 96 1022.8
20210228033133 36 0.0 0.0 0.00 0.20 0.13 96 1022.7
20210228032133 37 0.0 0.0 0.00 0.21 0.13 96 1022.7
20210228031134 36 0.0 0.0 0.00 0.21 0.13 96 1022.7
20210228030143 35 0.0 0.0 0.00 0.21 0.13 95 1022.7
20210228025136 35 0.0 0.0 0.00 0.21 0.13 95 1022.6
20210228024029 36 0.0 0.0 0.00 0.21 0.13 94 1022.4
20210228023035 38 0.0 0.0 0.00 0.21 0.13 96 1022.3
20210228022133 38 0.0 0.0 0.00 0.21 0.13 95 1022.2
20210228021136 38 0.0 0.0 0.00 0.21 0.13 95 1022.0
20210228020134 38 0.0 0.0 0.00 0.21 0.13 95 1021.8
20210228015030 37 0.0 0.0 0.00 0.21 0.13 94 1021.8
20210228014032 38 0.0 0.0 0.00 0.21 0.13 94 1021.6
20210228013037 38 0.0 0.0 0.00 0.21 0.13 94 1021.5
20210228012139 39 0.0 0.0 0.00 0.21 0.13 94 1021.5
20210228011135 40 0.0 0.0 0.00 0.21 0.13 94 1021.5
20210228010159 40 0.0 0.0 0.00 0.21 0.13 94 1021.5
20210228005340 40 0.0 0.0 0.00 0.21 0.13 92 1021.3